Regional Weather Roundup
Issued by NWS

Home | Current Version | Previous Version | Graphics & Text | Print | Product List | Glossary On
Versions: 1 2 3 4 5 6 7 8 9 10 11 12 13 14 15 16 17 18 19 20 21 22 23 24 25 26 27 28 29 30 31 32 33 34 35 36 37 38 39 40 41 42 43 44 45 46 47 48 49 50
000
ASUS43 KLOT 281006
RWRIL

ILLINOIS REGIONAL WEATHER ROUNDUP
NATIONAL WEATHER SERVICE CHICAGO/ROMEOVILLE IL
400 AM CST FRI NOV 28 2014

NOTE: "FAIR" INDICATES FEW OR NO CLOUDS BELOW 12,000 FEET WITH NO
SIGNIFICANT WEATHER AND/OR OBSTRUCTIONS TO VISIBILITY.

* THESE STATIONS ARE NOT UNDER NWS QUALITY CONTROL. THEY ALSO MAY NOT
  REPORT WEATHER SUCH AS PRECIPITATION OR FOG.

ILZ001-002-007-009-015-016-024-281100-
NORTHWEST ILLINOIS

CITY           SKY/WX    TMP DP  RH WIND       PRES   REMARKS
MOLINE         CLOUDY    17  10  74 E9        30.28F WCI   6
STERLING*      CLOUDY    16   9  73 S3        30.32F
SAVANNA*       CLOUDY    16   9  72 SE7       30.30F WCI   6
$$

ILZ003-004-008-010-011-017-018-281100-
NORTH CENTRAL ILLINOIS

CITY           SKY/WX    TMP DP  RH WIND       PRES   REMARKS
ROCKFORD       FLURRIES  16   7  67 SE6       30.34F WCI   7
FREEPORT*      CLOUDY    15   6  69 SE7       30.32F WCI   5
ROCHELLE*      CLOUDY    15  10  80 CALM      30.33F
DE KALB*       CLOUDY    15   8  72 CALM      30.33F
PERU*          LGT SNOW  18  12  78 SE6       30.34F WCI  10
$$

ILZ005-006-012>014-019>023-281100-
NORTHEAST ILLINOIS

CITY           SKY/WX    TMP DP  RH WIND       PRES   REMARKS
CHICAGO-OHARE  CLOUDY    19  11  70 S3        30.34F
CHICAGO-MIDWAY CLOUDY    21  12  68 S6        30.36F WCI  13
AURORA         CLOUDY    17   9  70 CALM      30.35F
LANSING*       CLOUDY    20  14  77 S3        30.37F
JOLIET*        CLOUDY    17  11  77 CALM      30.36F
WAUKEGAN       CLOUDY    16  11  80 CALM      30.34F
DUPAGE AIRPORT CLOUDY    17  12  80 S3        30.34F
KANKAKEE*      CLOUDY   N/A N/A N/A CALM      30.38S
WHEELING       CLOUDY    19  11  70 CALM      30.37F
MORRIS*        CLOUDY    17  14  86 SE5       30.35F WCI  10
ROMEOVILLE*    CLOUDY    18  12  77 CALM      30.35S
NORTHERLY ISL    N/A     21  11  65 SW3         N/A
$$

LMZ740>746-281100-
SOUTHERN LAKE MICHIGAN

STATION/POSITION SKY/WX   TEMP    WIND        PRES    VSBY  WAVE
                          AIR SEA DIR/SP/G                  HT/PER
                          (F)     (DEG/KT/KT) (MB)    (MI)  (FT/S)
SOUTHERN BUOY              24 42  260/ 12/ 16 1028.9R         2/ 6
WAUKEGAN HARBOR            18     260/  3/  5   N/A
HARRISON CRIB              21     200/ 10/ 14   N/A
BURNHAM HARBOR             21     180/  4/  8   N/A
CALUMET HARBOR             21     210/  3/  5 1027.0S
MICHIGAN CITY              21     200/ 10/ 12   N/A
$$

ILZ025>027-034>036-040-047-049-050-058-095>099-281100-
WEST-CENTRAL ILLINOIS

CITY           SKY/WX    TMP DP  RH WIND       PRES   REMARKS
QUINCY         CLEAR     20  15  81 SE14      30.26F WCI   7
GALESBURG*     CLOUDY    16  10  76 SE7       30.28F WCI   6
MACOMB*        PTCLDY    14   8  77 SE10      30.32F WCI   1
JACKSONVILLE*  PTCLDY    21  15  77 SE8       30.33F WCI  11
PITTSFIELD*    CLEAR     22  18  84 SE9       30.31F WCI  12
$$

ILZ028>032-037-038-041>044-048-051>054-059>061-281100-
CENTRAL ILLINOIS

CITY           SKY/WX    TMP DP  RH WIND       PRES   REMARKS
PONTIAC        CLOUDY    19  13  77 SE3       30.36F
BLOOMINGTON    MOCLDY    17  13  84 S5        30.34F WCI  10
DECATUR        MOCLDY    18  10  71 S6        30.37F WCI  10
PEORIA         CLOUDY    19  10  68 S9        30.34F WCI   8
LACON*         CLOUDY    17   9  69 SE5       30.34F WCI  10
LINCOLN*       PTCLDY    18  12  78 S5        30.39S WCI  11
SPRINGFIELD    PTCLDY    17   9  70 SE6       30.36F WCI   9
TAYLORVILLE    MOCLDY    19  12  73 S6        30.37F WCI  11
$$

ILZ033-039-045-046-055>057-062-063-281100-
EAST-CENTRAL ILLINOIS

CITY           SKY/WX    TMP DP  RH WIND       PRES   REMARKS
CHAMPAIGN      CLOUDY    19  14  81 SE6       30.36F WCI  11
DANVILLE*      CLOUDY    19  15  82 CALM      30.35F
RANTOUL*       CLOUDY    20  14  77 SE5       30.35F WCI  14
MATTOON        CLOUDY    19  10  68 S5        30.37F WCI  12
PARIS*         CLOUDY    20  16  84 CALM      30.39F
$$

ILZ079-100>102-281100-
SOUTHWEST ILLINOIS

CITY           SKY/WX    TMP DP  RH WIND       PRES   REMARKS
ALTON          MOCLDY    24  19  83 E8        30.35F WCI  15
BELLEVILLE     CLOUDY    24  22  92 SE7       30.36F WCI  16
CAHOKIA*       MOCLDY    25  20  81 SE9       30.36F WCI  15
SPARTA*        PTCLDY    25  22  88 SE5       30.38F WCI  19
$$

ILZ064>066-069>071-074>076-080>082-084>086-088>090-092>094-281100-
SOUTH-CENTRAL ILLINOIS

CITY           SKY/WX    TMP DP  RH WIND       PRES   REMARKS
CARBONDALE     PTCLDY    27  23  85 SE6       30.40F WCI  20
CAIRO*         CLEAR     30  26  84 SE8       30.40F WCI  22
EFFINGHAM*     MOCLDY    20  12  72 SE3       30.40F
MARION         PTCLDY    28  25  86 SE6       30.40F WCI  22
MT. VERNON     MOCLDY    25  16  68 CALM      30.40F
CENTRALIA*     MOCLDY    23  19  83 SE5       30.39S WCI  17
SALEM*           N/A     24  19  81 SE6       30.39F WCI  17
METROPOLIS*    PTCLDY    26  26 100 CALM        N/A  FOG
$$

ILZ067-068-072-073-078-083-087-091-281100-
SOUTHEAST ILLINOIS

CITY           SKY/WX    TMP DP  RH WIND       PRES   REMARKS
LAWRENCEVILLE  CLOUDY    23  20  88 S3        30.42F
FLORA*         CLOUDY    21  19  92 E3        30.41F
FAIRFIELD*     PTCLDY    22  20  93 CALM      30.40F
HARRISBURG*    PTCLDY    27  26  96 SE5       30.42F WCI  22
ROBINSON*      CLOUDY    23  19  87 CALM      30.43F
CARMI*         PTCLDY    25  25 100 CALM      30.42F
$$

ABBREVIATIONS USED IN REMARKS
   TC - TEMPERATURE IN CELSIUS
  WCI - WIND CHILL INDEX
   HX - HEAT INDEX
  VSB - VISIBILITY
$$



USA.gov is the U.S. government's official web portal to all federal, state and local government web resources and services.